TimeMDT,TemperatureF,Dew PointF,Humidity,Sea Level PressureIn,VisibilityMPH,Wind Direction,Wind SpeedMPH,Gust SpeedMPH,PrecipitationIn,Events,Conditions,WindDirDegrees,DateUTC
12:53 AM,35.1,28.0,76,29.91,10.0,ESE,21.9,-,N/A,,Overcast,110,2013-04-05 06:53:00
1:53 AM,34.0,30.0,85,29.86,10.0,ESE,21.9,-,0.00,Rain,Light Rain,110,2013-04-05 07:53:00
2:53 AM,34.0,28.9,82,29.84,10.0,ESE,19.6,-,0.00,,Overcast,110,2013-04-05 08:53:00
3:53 AM,35.1,28.9,78,29.81,10.0,ESE,19.6,-,N/A,,Overcast,110,2013-04-05 09:53:00
4:53 AM,34.0,30.0,85,29.78,10.0,ESE,18.4,-,0.01,Rain,Light Rain,110,2013-04-05 10:53:00
5:53 AM,34.0,30.0,85,29.76,10.0,ESE,13.8,-,0.00,,Mostly Cloudy,110,2013-04-05 11:53:00
6:53 AM,34.0,30.0,85,29.74,10.0,East,15.0,-,N/A,,Mostly Cloudy,100,2013-04-05 12:53:00
7:53 AM,35.1,30.9,85,29.74,10.0,ESE,15.0,-,N/A,,Overcast,110,2013-04-05 13:53:00
8:53 AM,39.0,30.9,73,29.72,10.0,East,13.8,-,N/A,,Partly Cloudy,100,2013-04-05 14:53:00
9:53 AM,43.0,30.9,62,29.70,10.0,ESE,12.7,-,N/A,,Clear,120,2013-04-05 15:53:00
10:53 AM,48.0,32.0,54,29.68,10.0,SE,8.1,-,N/A,,Unknown,140,2013-04-05 16:53:00
11:53 AM,51.1,33.1,50,29.66,10.0,Variable,3.5,-,N/A,,Unknown,0,2013-04-05 17:53:00
12:53 PM,57.9,35.1,42,29.64,10.0,Variable,3.5,-,N/A,,Clear,0,2013-04-05 18:53:00
1:53 PM,61.0,37.0,41,29.61,10.0,NW,4.6,-,N/A,,Clear,310,2013-04-05 19:53:00
2:53 PM,66.0,37.9,36,29.59,10.0,WNW,6.9,-,N/A,,Clear,290,2013-04-05 20:53:00
3:53 PM,66.0,37.9,36,29.58,10.0,NW,12.7,-,N/A,,Mostly Cloudy,310,2013-04-05 21:53:00
4:53 PM,64.0,34.0,33,29.61,10.0,NW,17.3,24.2,N/A,,Overcast,320,2013-04-05 22:53:00
5:53 PM,62.1,34.0,35,29.62,10.0,NNW,11.5,-,N/A,,Scattered Clouds,330,2013-04-05 23:53:00
6:53 PM,60.1,37.0,42,29.63,10.0,North,3.5,-,N/A,,Clear,10,2013-04-06 00:53:00
7:53 PM,57.0,37.9,49,29.64,10.0,West,11.5,-,0.00,,Mostly Cloudy,260,2013-04-06 01:53:00
8:53 PM,52.0,41.0,66,29.65,10.0,South,6.9,-,0.00,,Scattered Clouds,180,2013-04-06 02:53:00
9:53 PM,46.0,41.0,83,29.68,10.0,North,5.8,-,N/A,,Partly Cloudy,360,2013-04-06 03:53:00
10:20 PM,46.4,41.0,81,29.66,10.0,NNW,10.4,-,N/A,Thunderstorm,Thunderstorm,340,2013-04-06 04:20:00
10:46 PM,48.2,41.0,76,29.67,10.0,NNW,5.8,-,N/A,,Mostly Cloudy,340,2013-04-06 04:46:00
10:53 PM,48.9,41.0,74,29.70,10.0,North,4.6,-,N/A,,Mostly Cloudy,350,2013-04-06 04:53:00
11:53 PM,46.0,39.9,79,29.71,10.0,WNW,4.6,-,N/A,,Mostly Cloudy,290,2013-04-06 05:53:00